Location: Ernez
(36.4595°N, 29.8755°E)
Time: 08:45:49
(UTC+00:00)

Cosmos 1763 Rocket - Pass Details

Date: 13 November 2025
Orbit: 728 x 774 km, 74.0° (Epoch: 04 December)

Event Time Altitude Azimuth Distance (km) Brightness Sun altitude
Rises 16:57:23 0° 339° (NNW) 3,231 6.9 -25.0°
Reaches altitude 10° 16:59:47 10° 336° (NNW) 2,295 6.2 -25.5°
Maximum altitude 17:04:56 66° 256° (WSW) 822 3.7 -26.5°
Enters shadow 17:08:51 17° 177° (S) 1,823 5.4 -27.3°
